KURESSAARE current weather conditions

sailwx.info

Wind from 230 at 9 knots

Air temperature 1.0° C
Visibility: greater than 5.4 NM
Dewpoint 1.0° C

Last reported at 2015-Feb-01 17:50 UTC.
Time now 2015-Feb-01 19:45 UTC

Location: N 58°14' E 022°31'.
View on Google Maps.

See reports from other nearby stations

  
Tides and Currents Weather Stations Pressure Air Temp Water Temp Dewpoint Dewpoint Depression Visibility Wind Speed Wind Dir Waves Ship Positions
date/time (UTC)wind fromknots sea level pressurealtimeterstation pressurevisibilityair tempwater tempwave heightnotes
2015-Feb-01 17:50 230 9 5.4 1.0
2015-Feb-01 16:50 230 7 4.9 1.0 Light rain showers.
2015-Feb-01 15:50 240 11 3.2 1.0 Light rain showers.
2015-Feb-01 14:50 240 8 4.9 2.0 Light snow rain.
2015-Feb-01 13:50 210 12 5.4 2.0
2015-Feb-01 12:50 210 12 5.4 2.0 Light rain.
2015-Feb-01 11:50 210 13 5.4 2.0
2015-Feb-01 10:50 210 13 5.4 1.0
2015-Feb-01 09:50 210 13 5.4 1.0
2015-Feb-01 08:50 220 15 5.4 1.0 Light rain snow.
2015-Feb-01 07:50 220 9 5.4 1.0 Light drizzle rain.
2015-Feb-01 06:50 240 6 5.4 2.0 Drizzle.
2015-Feb-01 05:50 240 5 4.9 1.0 Light rain.
2015-Feb-01 04:50 260 9 4.3 1.0 Light rain.
2015-Feb-01 03:50 240 5 2.7 1.0 Light rain.
2015-Feb-01 02:50 250 3 1.6 1.0 Light rain. Mist.
2015-Feb-01 01:50 230 5 2.3 1.0 Light rain. Mist.
2015-Feb-01 00:50 250 5 2.7 1.0 Light rain. Mist.
2015-Jan-31 23:50 220 5 2.4 1.0 Mist.
2015-Jan-31 22:50 180 5 0.6 2.0 Light rain. Fog.
2015-Jan-31 21:50 130 5 0.7 2.0 Fog.
2015-Jan-31 20:50 110 9 2.7 2.0 Mist.
2015-Jan-31 19:50 110 8 2.7 2.0 Light rain. Mist.
2015-Jan-31 18:50 110 9 5.4 2.0 Light rain.
2015-Jan-31 17:50 110 11 4.9 2.0 Light rain.
2015-Jan-31 16:50 110 12 5.4 2.0 Drizzle.
2015-Jan-31 15:50 100 14 5.4 2.0 Light rain.
2015-Jan-31 14:50 100 13 5.4 2.0 Light rain.
2015-Jan-31 13:50 110 14 4.3 2.0 Light rain.
2015-Jan-31 11:50 110 13 4.9 2.0 Light rain.
2015-Jan-31 10:50 110 14 3.2 1.0 Light rain.
2015-Jan-31 09:50 110 15 4.9 2.0 Light rain.
2015-Jan-31 08:50 120 15 5.4 2.0 Light rain.
2015-Jan-31 07:50 110 14 5.4 1.0 Light rain.
2015-Jan-31 06:50 110 16 5.4 2.0 Light rain drizzle.
2015-Jan-31 05:50 110 15 5.4 1.0 Light rain.
2015-Jan-31 04:50 120 14 gusting 24 5.4 1.0
2015-Jan-31 03:50 120 15 5.4 1.0 Light snow grains.
2015-Jan-31 02:50 130 15 5.4 1.0 Light snow.
2015-Jan-31 01:50 120 15 5.4 1.0
2015-Jan-31 00:50 110 13 5.4 1.0 Light snow.
2015-Jan-30 23:50 120 15 2.3-0.0 Light snow.
2015-Jan-30 22:50 130 15 2.3 1.0 Light snow.
2015-Jan-30 21:50 120 13 5.4 1.0
2015-Jan-30 20:50 130 13 5.4 1.0
2015-Jan-30 19:50 130 14 5.4 2.0